Terminalur

Vevmynd ímóti Terminalinum

Ímóti Miđvági Ímóti Sřrvági


Veđriđ á flogvřllinum (metar):

EKVG 211620Z AUTO 27024G34KT 9999NDV -SHRA BKN022/// 07/05 Q0992

METAR / TAF frá DMI fyri Vágar                      Veđurtíđindi frá Vága Floghavn

Atlantic Airways

Atlantic Airways heimasíđa

Tíđindi    .

26. januar 2015
Áheitan viđvíkjandi lasaraljós

Veđriđ

Kunning

Vevmyndir

Terminalur